フルス彗星

C/2023 U1 ( Fuls )

English version
Home page
Updated on May 15, 2024

---------------------------------------------------------------------

・ プロフィール

発見日 2023年10月16日
発見光度 19.3等
発見者 David Carson Fuls (Mt. Lemmon Survey)

・ 写真集

・ 軌道要素

Epoch 2024 Mar. 31.0 TT = JDT 2460400.5
T 2024 Oct. 12.57646 TT                                 Rudenko
q   4.9730236            (2000.0)            P               Q
z  +0.0004432      Peri.  255.60378     +0.09917051     +0.62951683
 +/-0.0000032      Node   305.80959     +0.71305120     -0.58513720
e   0.9977961      Incl.  108.14630     -0.69406282     -0.51119764
>From 108 observations 2023 Jan. 24-2024 Mar. 14, mean residual 0".6.

・ 光度変化

        m1 = 8.0 + 5 logΔ + 10.0 log r

---------------------------------------------------------------------

軌道要素はM.P.E.C. 2024-G193に掲載されたものです。
光度グラフはComet for Windowsで作成したものです。

---------------------------------------------------------------------

Copyright(C) Seiichi Yoshida (comet@aerith.net). All rights reserved.